Regional Weather Roundup
Issued by NWS

Home | Current Version | Previous Version | Text Only | Print | Product List | Glossary Off
Versions: 1 2 3 4 5 6 7 8 9 10 11 12 13 14 15 16 17 18 19 20 21 22 23 24 25 26 27 28 29 30 31 32 33 34 35 36 37 38 39 40 41 42 43 44 45 46 47 48 49 50

920
ASUS43 KIND 230409
RWRIN

WEATHER ROUNDUP FOR INDIANA
NATIONAL WEATHER SERVICE INDIANAPOLIS IN
1200 AM EDT MON OCT 23 2017

NOTE: "FAIR" INDICATES FEW OR NO CLOUDS BELOW 12,000 FEET WITH NO
SIGNIFICANT WEATHER AND/OR OBSTRUCTIONS TO VISIBILITY.

* - STATION DOES NOT REPORT WEATHER SUCH AS PRECIPITATION OR FOG.

+ - STATION NOT QUALITY CONTROLLED BY THE NATIONAL WEATHER SERVICE.
    USE DATA WITH CAUTION...ESPECIALLY DEWPOINT AND RELATIVE
    HUMIDITY OBSERVATIONS.

INZ001>003-010>013-019-020-230500-
NORTHWEST INDIANA

CITY           SKY/WX    TMP DP  RH WIND       PRES   REMARKS
GARY /AIRPORT/ HVY RAIN  56  56  97 N9        30.01F
KNOX *+        CLOUDY    55  55 100 CALM      29.99F
LA PORTE +     CLOUDY    55  55  99 N7        30.00S
MICHIGAN CITY+ CLOUDY    54  54 100 N3        30.00F
MONTICELLO +   CLOUDY    58  56  94 N7        29.96F
RENSSELAER +   DRIZZLE   54  50  87 N6        29.99F
VALPARAISO     LGT RAIN  57  55  93 N6        29.99F

$$

LMZ046-743>745-230500-
SOUTHERN LAKE MICHIGAN

STATION/POSITION TIME  TEMP    WIND        PRES    WAVE
                       AIR SEA DIR/SP/G            HT
                 (UTC) (F)     (DEG/KT/KT) (MB)    (FT)
BURNS HARBOR     0400   56      20/ 11/ 16 1016.3
MICHIGAN CITY    0340   56     360/ 13/ 14   N/A
5NW MICH CITY    0400   56 58   30/ 12/ 14   N/A     5

$$

INZ004-005-014>016-021>024-230500-
NORTH CENTRAL INDIANA

CITY           SKY/WX    TMP DP  RH WIND       PRES   REMARKS
GOSHEN         CLOUDY    64  60  87 NW3       29.98F
LOGANSPORT +   CLOUDY    66  55  68 S3        29.96F
PERU/GRISSOM   CLOUDY    68  55  62 S12       29.96F
SOUTH BEND     CLOUDY    56  56 100 N5        29.99F
WARSAW +       CLOUDY    68  55  64 S3        29.98F

$$

INZ006>009-017-018-025>027-230500-
NORTHEAST INDIANA

CITY           SKY/WX    TMP DP  RH WIND       PRES   REMARKS
AUBURN +       CLOUDY    68  50  52 S5        30.00F
FORT WAYNE     CLOUDY    66  51  58 S10       30.00F
HUNTINGTON +   CLOUDY    66  52  59 S7        29.99F
KENDALLVILLE + CLOUDY    66  53  63 S9        30.00F

$$

INZ028-029-035-036-043>045-051>053-230500-
WEST CENTRAL INDIANA

CITY           SKY/WX    TMP DP  RH WIND       PRES   REMARKS
CRAWFORDSVL +  CLOUDY    63  59  88 W10       29.96S
GREENCASTLE +  CLOUDY    68  55  64 S7        29.95F
LAFAYETTE      CLOUDY    60  58  92 N7        29.96F
TERRE HAUTE    CLOUDY    61  59  93 CALM      29.95F

$$

INZ030>032-037>040-046>048-054>057-064-065-230500-
CENTRAL INDIANA

CITY           SKY/WX    TMP DP  RH WIND       PRES   REMARKS
CP ATTERBURY + CLOUDY    66  54  63 SE6       29.98F
FRANKFORT +    CLOUDY    70  57  64 S3        29.97F
GREENWOOD *+   CLOUDY    69  57  64 SE7       29.98F
INDIANAPOLIS   CLOUDY    67  55  65 SE12      29.96F
-EAGLE CREEK   CLOUDY    68  54  60 SE8       29.96F
KOKOMO +       CLOUDY    67  55  65 SE10      29.98F
MT COMFORT *+  CLOUDY    66  57  72 S7        29.98F
SHELBYVILLE    CLOUDY    68  53  58 SE13      29.97F
ZIONSVILLE +   CLOUDY    67  55  65 S10       29.97F

$$

INZ033-034-041-042-049-050-058-059-230500-
EAST CENTRAL INDIANA

CITY           SKY/WX    TMP DP  RH WIND       PRES   REMARKS
MUNCIE         CLOUDY    69  51  52 S8G17     29.99F
RICHMOND +     CLOUDY    61  50  67 SE8       30.04F

$$

INZ060-061-067>069-081>083-085>088-230500-
SOUTHWEST INDIANA

CITY           SKY/WX    TMP DP  RH WIND       PRES   REMARKS
EVANSVILLE     RAIN      65  64  97 E3        29.91F
HUNTINGBURG +  LGT RAIN  70  62  76 SE13      29.94F
WASHINGTON +   CLOUDY    65  63  93 CALM      29.93F

$$

INZ062-063-066-070>080-084-089>092-230500-
SOUTH CENTRAL AND SOUTHEAST INDIANA

CITY           SKY/WX    TMP DP  RH WIND       PRES   REMARKS
BLOOMINGTON    CLOUDY    69  56  62 SE7       29.95F
MADISON *+     CLOUDY    68  52  56 SE6       30.03S
SEYMOUR +      MOCLDY    70  54  56 SE9G16    29.98F

$$





USA.gov is the U.S. government's official web portal to all federal, state and local government web resources and services.